| time (UTC) | temp C | wind direction | speed KPH | gust KPH | rain 1hr cm | rain 24hr cm | rain mn cm | humidity % | barometer mb |
| 20260504140506 | 13 | 285 | 9.7 | 22.5 | 0.00 | 0.03 | 0.03 | 56 | 1008.6 |
| 20260504130504 | 11 | 169 | 4.8 | 11.3 | 0.00 | 0.03 | 0.03 | 72 | 1008.8 |
| 20260504110459 | 3 | 23 | 0.0 | 3.2 | 0.00 | 0.03 | 0.03 | 92 | 1010.3 |
| 20260504100448 | 2 | 36 | 1.6 | 4.8 | 0.03 | 0.03 | 0.03 | 91 | 1010.4 |
| 20260504081947 | 1 | 292 | 1.6 | 3.2 | 0.00 | 0.00 | 0.00 | 89 | 1010.5 |
| 20260504081445 | 1 | 292 | 1.6 | 3.2 | 0.00 | 0.00 | 0.00 | 89 | 1010.4 |
| 20260504080945 | 1 | 292 | 1.6 | 3.2 | 0.00 | 0.00 | 0.00 | 89 | 1010.6 |
| 20260504080445 | 1 | 292 | 1.6 | 3.2 | 0.00 | 0.00 | 0.00 | 89 | 1010.7 |
| 20260504050436 | 0 | 292 | 0.0 | 3.2 | 0.00 | 0.00 | 0.00 | 84 | 1011.3 |
| 20260504045938 | 0 | 292 | 0.0 | 1.6 | 0.00 | 0.00 | 0.00 | 84 | 1011.4 |
| 20260504045437 | 0 | 292 | 0.0 | 3.2 | 0.00 | 0.00 | 0.00 | 84 | 1011.4 |
| 20260504044937 | 0 | 292 | 1.6 | 3.2 | 0.00 | 0.00 | 0.00 | 84 | 1011.4 |
| 20260504044437 | 0 | 292 | 1.6 | 4.8 | 0.00 | 0.00 | 0.00 | 84 | 1011.5 |
| 20260504043938 | 0 | 292 | 1.6 | 4.8 | 0.00 | 0.00 | 0.00 | 84 | 1011.6 |
| 20260504043436 | 0 | 292 | 0.0 | 3.2 | 0.00 | 0.00 | 0.00 | 84 | 1011.6 |
| 20260504042935 | 0 | 292 | 0.0 | 1.6 | 0.00 | 0.00 | 0.00 | 84 | 1011.7 |
| 20260504042436 | 0 | 292 | 0.0 | 1.6 | 0.00 | 0.00 | 0.00 | 84 | 1011.7 |
| 20260504041936 | 0 | 292 | 0.0 | 3.2 | 0.00 | 0.00 | 0.00 | 83 | 1011.7 |
| 20260504041435 | 0 | 292 | 0.0 | 3.2 | 0.00 | 0.00 | 0.00 | 83 | 1011.7 |
| 20260504040935 | 0 | 292 | 0.0 | 1.6 | 0.00 | 0.00 | 0.00 | 82 | 1011.8 |
| 20260504040435 | 0 | 292 | 0.0 | 1.6 | 0.00 | 0.00 | 0.00 | 82 | 1011.8 |
| 20260504035935 | 0 | 292 | 0.0 | 0.0 | 0.00 | 0.00 | 0.00 | 82 | 1011.8 |
| 20260504035434 | 0 | 292 | 0.0 | 1.6 | 0.00 | 0.00 | 0.00 | 82 | 1011.7 |
| 20260504034936 | 0 | 292 | 0.0 | 1.6 | 0.00 | 0.00 | 0.00 | 81 | 1011.7 |
| 20260504033434 | 0 | 292 | 0.0 | 1.6 | 0.00 | 0.00 | 0.00 | 80 | 1011.8 |
| 20260504032934 | 0 | 292 | 0.0 | 0.0 | 0.00 | 0.00 | 0.00 | 79 | 1011.7 |
| 20260504032434 | 0 | 292 | 0.0 | 0.0 | 0.00 | 0.00 | 0.00 | 79 | 1011.8 |
| 20260504031934 | 0 | 292 | 0.0 | 0.0 | 0.00 | 0.00 | 0.00 | 79 | 1011.7 |
| 20260504031435 | 1 | 292 | 0.0 | 0.0 | 0.00 | 0.00 | 0.00 | 78 | 1011.8 |
| 20260504030933 | 1 | 292 | 0.0 | 0.0 | 0.00 | 0.00 | 0.00 | 77 | 1011.8 |
| 20260504030432 | 1 | 292 | 0.0 | 0.0 | 0.00 | 0.00 | 0.00 | 77 | 1011.8 |
| 20260504025933 | 1 | 292 | 0.0 | 0.0 | 0.00 | 0.00 | 0.00 | 77 | 1011.8 |
| 20260504025432 | 1 | 292 | 0.0 | 0.0 | 0.00 | 0.00 | 0.00 | 77 | 1011.9 |
| 20260504024933 | 1 | 292 | 0.0 | 3.2 | 0.00 | 0.00 | 0.00 | 76 | 1011.9 |
| 20260504023933 | 1 | 292 | 0.0 | 1.6 | 0.00 | 0.00 | 0.00 | 76 | 1012.0 |
| 20260504022932 | 2 | 292 | 0.0 | 3.2 | 0.00 | 0.00 | 0.00 | 75 | 1011.8 |
| 20260504022432 | 2 | 292 | 0.0 | 3.2 | 0.00 | 0.00 | 0.00 | 75 | 1011.7 |
| 20260504021931 | 2 | 292 | 0.0 | 1.6 | 0.00 | 0.00 | 0.00 | 75 | 1011.8 |
| 20260504021430 | 2 | 292 | 0.0 | 1.6 | 0.00 | 0.00 | 0.00 | 74 | 1011.6 |
| 20260504020930 | 2 | 292 | 0.0 | 0.0 | 0.00 | 0.00 | 0.00 | 74 | 1011.8 |
| 20260504020430 | 2 | 292 | 0.0 | 0.0 | 0.00 | 0.00 | 0.00 | 73 | 1011.8 |
| 20260504015930 | 2 | 292 | 0.0 | 0.0 | 0.00 | 0.00 | 0.00 | 73 | 1011.8 |
| 20260504015430 | 2 | 292 | 0.0 | 0.0 | 0.00 | 0.00 | 0.00 | 73 | 1011.8 |
| 20260504014930 | 3 | 292 | 0.0 | 0.0 | 0.00 | 0.00 | 0.00 | 72 | 1011.8 |
| 20260504014431 | 3 | 292 | 0.0 | 1.6 | 0.00 | 0.00 | 0.00 | 72 | 1011.7 |
| 20260504013930 | 3 | 292 | 0.0 | 1.6 | 0.00 | 0.00 | 0.00 | 71 | 1011.8 |
| 20260504013429 | 3 | 292 | 0.0 | 1.6 | 0.00 | 0.00 | 0.00 | 71 | 1011.7 |
| 20260504012929 | 3 | 292 | 0.0 | 1.6 | 0.00 | 0.00 | 0.00 | 71 | 1011.7 |
| 20260504011429 | 4 | 292 | 0.0 | 1.6 | 0.00 | 0.00 | 0.00 | 69 | 1011.5 |
| 20260504010926 | 4 | 292 | 0.0 | 1.6 | 0.00 | 0.00 | 0.00 | 68 | 1011.4 |
| 20260504010426 | 5 | 292 | 0.0 | 0.0 | 0.00 | 0.00 | 0.00 | 67 | 1011.3 |
| 20260504005924 | 5 | 292 | 0.0 | 1.6 | 0.00 | 0.00 | 0.00 | 66 | 1011.3 |
| 20260504005424 | 5 | 292 | 0.0 | 1.6 | 0.00 | 0.00 | 0.00 | 65 | 1011.1 |
| 20260504004924 | 5 | 292 | 0.0 | 1.6 | 0.00 | 0.00 | 0.00 | 64 | 1011.0 |
| 20260504004424 | 6 | 292 | 0.0 | 1.6 | 0.00 | 0.00 | 0.00 | 64 | 1011.0 |
| 20260504003922 | 6 | 292 | 0.0 | 1.6 | 0.00 | 0.00 | 0.00 | 62 | 1011.0 |
| 20260504003422 | 6 | 292 | 0.0 | 3.2 | 0.00 | 0.00 | 0.00 | 61 | 1011.0 |
| 20260504002922 | 7 | 292 | 0.0 | 3.2 | 0.00 | 0.00 | 0.00 | 60 | 1011.0 |
| 20260504001922 | 7 | 292 | 0.0 | 1.6 | 0.00 | 0.00 | 0.00 | 58 | 1010.7 |
| 20260504001422 | 7 | 292 | 0.0 | 1.6 | 0.00 | 0.00 | 0.00 | 57 | 1010.9 |
| 20260504000923 | 8 | 292 | 0.0 | 1.6 | 0.00 | 0.00 | 0.00 | 55 | 1010.7 |
| 20260504000420 | 8 | 292 | 0.0 | 3.2 | 0.00 | 0.00 | 0.00 | 53 | 1010.7 |
| 20260503235920 | 8 | 292 | 1.6 | 3.2 | 0.00 | 0.00 | 0.00 | 50 | 1010.7 |
| 20260503235420 | 8 | 292 | 1.6 | 6.4 | 0.00 | 0.00 | 0.00 | 50 | 1010.7 |
| 20260503234919 | 8 | 292 | 1.6 | 6.4 | 0.00 | 0.00 | 0.00 | 48 | 1010.7 |
| 20260503234419 | 9 | 308 | 1.6 | 4.8 | 0.00 | 0.00 | 0.00 | 47 | 1010.7 |
| 20260503233917 | 9 | 308 | 1.6 | 4.8 | 0.00 | 0.00 | 0.00 | 46 | 1010.6 |
| 20260503233419 | 9 | 308 | 3.2 | 6.4 | 0.00 | 0.00 | 0.00 | 46 | 1010.6 |
| 20260503232918 | 9 | 308 | 4.8 | 12.9 | 0.00 | 0.00 | 0.00 | 46 | 1010.6 |
| 20260503232418 | 9 | 355 | 4.8 | 12.9 | 0.00 | 0.00 | 0.00 | 46 | 1010.5 |
| 20260503231916 | 9 | 341 | 3.2 | 12.9 | 0.00 | 0.00 | 0.00 | 45 | 1010.6 |
| 20260503231415 | 10 | 302 | 3.2 | 9.7 | 0.00 | 0.00 | 0.00 | 45 | 1010.5 |
| 20260503230915 | 10 | 15 | 3.2 | 9.7 | 0.00 | 0.00 | 0.00 | 46 | 1010.5 |
| 20260503230415 | 10 | 314 | 3.2 | 9.7 | 0.00 | 0.00 | 0.00 | 44 | 1010.5 |
| 20260503225416 | 10 | 272 | 4.8 | 12.9 | 0.00 | 0.00 | 0.00 | 44 | 1010.5 |
| 20260503224916 | 10 | 267 | 6.4 | 12.9 | 0.00 | 0.00 | 0.00 | 43 | 1010.5 |
| 20260503224416 | 10 | 275 | 4.8 | 14.5 | 0.00 | 0.00 | 0.00 | 43 | 1010.5 |
| 20260503223915 | 10 | 351 | 4.8 | 14.5 | 0.00 | 0.00 | 0.00 | 43 | 1010.6 |
| 20260503223415 | 10 | 263 | 4.8 | 11.3 | 0.00 | 0.00 | 0.00 | 45 | 1010.5 |
| 20260503222416 | 10 | 246 | 4.8 | 12.9 | 0.00 | 0.00 | 0.00 | 44 | 1010.4 |
| 20260503221916 | 10 | 241 | 4.8 | 11.3 | 0.00 | 0.00 | 0.00 | 44 | 1010.5 |
| 20260503221415 | 10 | 282 | 4.8 | 11.3 | 0.00 | 0.00 | 0.00 | 45 | 1010.5 |
| 20260503220916 | 10 | 287 | 3.2 | 9.7 | 0.00 | 0.00 | 0.00 | 45 | 1010.4 |
| 20260503220415 | 10 | 250 | 3.2 | 9.7 | 0.00 | 0.00 | 0.00 | 45 | 1010.4 |
| 20260503215915 | 10 | 5 | 3.2 | 6.4 | 0.00 | 0.00 | 0.00 | 45 | 1010.4 |
| 20260503215416 | 10 | 286 | 3.2 | 14.5 | 0.00 | 0.00 | 0.00 | 45 | 1010.4 |
| 20260503214913 | 10 | 252 | 6.4 | 20.9 | 0.00 | 0.00 | 0.00 | 45 | 1010.5 |
| 20260503214414 | 10 | 217 | 6.4 | 20.9 | 0.00 | 0.00 | 0.00 | 44 | 1010.5 |
| 20260503213914 | 10 | 219 | 4.8 | 12.9 | 0.00 | 0.00 | 0.00 | 45 | 1010.5 |
| 20260503213415 | 10 | 346 | 4.8 | 17.7 | 0.00 | 0.00 | 0.00 | 45 | 1010.4 |
| 20260503212911 | 10 | 340 | 6.4 | 17.7 | 0.00 | 0.00 | 0.00 | 46 | 1010.5 |
| 20260503212411 | 10 | 0 | 4.8 | 17.7 | 0.00 | 0.00 | 0.00 | 45 | 1010.5 |
| 20260503211911 | 10 | 267 | 4.8 | 17.7 | 0.00 | 0.00 | 0.00 | 44 | 1010.5 |
| 20260503211412 | 10 | 273 | 4.8 | 14.5 | 0.00 | 0.00 | 0.00 | 45 | 1010.4 |
| 20260503210911 | 10 | 284 | 4.8 | 14.5 | 0.00 | 0.00 | 0.00 | 45 | 1010.4 |
| 20260503210411 | 10 | 346 | 4.8 | 14.5 | 0.00 | 0.00 | 0.00 | 44 | 1010.3 |
| 20260503205909 | 11 | 347 | 4.8 | 12.9 | 0.00 | 0.00 | 0.00 | 44 | 1010.3 |
| 20260503205409 | 10 | 355 | 4.8 | 12.9 | 0.00 | 0.00 | 0.00 | 46 | 1010.3 |
| 20260503204909 | 10 | 265 | 4.8 | 12.9 | 0.00 | 0.00 | 0.00 | 47 | 1010.3 |
| 20260503204409 | 9 | 323 | 4.8 | 12.9 | 0.00 | 0.00 | 0.00 | 48 | 1010.3 |
| 20260503203409 | 9 | 266 | 8.0 | 20.9 | 0.00 | 0.00 | 0.00 | 47 | 1010.4 |
| 20260503202908 | 9 | 277 | 6.4 | 17.7 | 0.00 | 0.00 | 0.00 | 48 | 1010.4 |
| 20260503202410 | 10 | 229 | 4.8 | 17.7 | 0.00 | 0.03 | 0.00 | 47 | 1010.4 |
| 20260503201909 | 9 | 10 | 6.4 | 17.7 | 0.00 | 0.03 | 0.00 | 50 | 1010.4 |
| 20260503201409 | 8 | 309 | 8.0 | 19.3 | 0.00 | 0.03 | 0.00 | 49 | 1010.5 |
| 20260503200909 | 8 | 314 | 8.0 | 20.9 | 0.00 | 0.03 | 0.00 | 49 | 1010.6 |
| 20260503200409 | 8 | 226 | 6.4 | 22.5 | 0.00 | 0.03 | 0.00 | 49 | 1010.6 |
| 20260503195910 | 8 | 33 | 9.7 | 24.1 | 0.00 | 0.03 | 0.00 | 48 | 1010.7 |
| 20260503195407 | 8 | 355 | 9.7 | 24.1 | 0.00 | 0.03 | 0.00 | 49 | 1010.5 |
| 20260503194907 | 9 | 355 | 8.0 | 20.9 | 0.00 | 0.03 | 0.00 | 48 | 1010.6 |
| 20260503193907 | 9 | 252 | 4.8 | 17.7 | 0.00 | 0.03 | 0.00 | 49 | 1010.7 |
| 20260503193407 | 8 | 355 | 8.0 | 22.5 | 0.00 | 0.03 | 0.00 | 50 | 1010.7 |
| 20260503192907 | 8 | 247 | 9.7 | 22.5 | 0.00 | 0.03 | 0.00 | 48 | 1011.0 |
| 20260503192407 | 8 | 355 | 9.7 | 27.4 | 0.00 | 0.03 | 0.00 | 49 | 1011.0 |
| 20260503190905 | 9 | 265 | 8.0 | 20.9 | 0.00 | 0.03 | 0.00 | 46 | 1010.9 |
| 20260503185905 | 9 | 281 | 6.4 | 17.7 | 0.00 | 0.03 | 0.00 | 46 | 1010.7 |
| 20260503185404 | 9 | 267 | 6.4 | 16.1 | 0.00 | 0.03 | 0.00 | 48 | 1010.9 |
| 20260503184906 | 8 | 300 | 8.0 | 25.7 | 0.00 | 0.03 | 0.00 | 47 | 1010.9 |
| 20260503184405 | 8 | 290 | 11.3 | 27.4 | 0.00 | 0.03 | 0.00 | 46 | 1011.0 |
| 20260503183405 | 9 | 293 | 9.7 | 19.3 | 0.00 | 0.03 | 0.00 | 46 | 1011.0 |
| 20260503182904 | 9 | 321 | 9.7 | 24.1 | 0.00 | 0.03 | 0.00 | 44 | 1011.0 |
| 20260503182405 | 9 | 271 | 8.0 | 27.4 | 0.00 | 0.03 | 0.00 | 44 | 1011.0 |
| 20260503181905 | 9 | 306 | 8.0 | 27.4 | 0.00 | 0.03 | 0.00 | 44 | 1011.0 |
| 20260503181405 | 9 | 302 | 8.0 | 22.5 | 0.00 | 0.03 | 0.00 | 43 | 1011.0 |
| 20260503180905 | 9 | 17 | 9.7 | 22.5 | 0.00 | 0.03 | 0.00 | 43 | 1010.7 |
| 20260503175906 | 9 | 0 | 8.0 | 24.1 | 0.00 | 0.03 | 0.00 | 43 | 1011.0 |
| 20260503174906 | 8 | 5 | 6.4 | 19.3 | 0.00 | 0.03 | 0.00 | 46 | 1011.0 |
| 20260503174405 | 8 | 252 | 6.4 | 17.7 | 0.00 | 0.03 | 0.00 | 45 | 1011.0 |
| 20260503173904 | 8 | 355 | 6.4 | 17.7 | 0.00 | 0.03 | 0.00 | 46 | 1011.0 |
| 20260503173405 | 8 | 283 | 6.4 | 17.7 | 0.00 | 0.03 | 0.00 | 46 | 1011.0 |
| 20260503172906 | 8 | 281 | 6.4 | 19.3 | 0.00 | 0.03 | 0.00 | 48 | 1011.0 |
| 20260503172405 | 8 | 258 | 9.7 | 19.3 | 0.00 | 0.03 | 0.00 | 48 | 1011.0 |
| 20260503171904 | 8 | 300 | 8.0 | 19.3 | 0.00 | 0.03 | 0.00 | 48 | 1011.1 |
| 20260503171405 | 8 | 266 | 6.4 | 17.7 | 0.00 | 0.03 | 0.00 | 47 | 1011.0 |
| 20260503170402 | 9 | 0 | 6.4 | 19.3 | 0.00 | 0.03 | 0.00 | 48 | 1011.0 |
| 20260503150904 | 8 | 240 | 8.0 | 17.7 | 0.00 | 0.03 | 0.00 | 50 | 1011.8 |
| 20260503150402 | 7 | 338 | 6.4 | 17.7 | 0.00 | 0.03 | 0.00 | 51 | 1011.9 |